Location: Home
(42.5358°N, 72.7383°W)
Time: 05:03:59
(UTC-05:00)

A-11 Canister half - Pass Details

Date: 07 December 2021
Orbit: 1524 x 1684 km, 47.3° (Epoch: 17 January)

Event Time Altitude Azimuth Distance (km) Brightness Sun altitude
Exits shadow 05:13:53 28° 294° (WNW) 2,766 9.7 -20.2°
Maximum altitude 05:20:08 85° 22° (NNE) 1,654 9.1 -19.1°
Drops below altitude 10° 05:29:57 10° 112° (ESE) 3,817 12.4 -17.3°
Sets 05:32:59 0° 113° (ESE) 4,779 13.3 -16.8°
